Location: Be?chatów
(51.3665°N, 19.3745°E)
Time: 22:53:47
(UTC+00:00)

Cosmos 2150 Rocket - Pass Details

Date: 19 May 2025
Orbit: 745 x 804 km, 74.0° (Epoch: 16 June)

Event Time Altitude Azimuth Distance (km) Brightness Sun altitude
Rises 19:51:24 0° 336° (NNW) 3,290 9.0 -9.8°
Reaches altitude 10° 19:53:50 10° 341° (NNW) 2,365 7.8 -10.0°
Maximum altitude 19:59:10 60° 61° (ENE) 917 4.4 -10.6°
Enters shadow 20:03:42 15° 139° (SE) 2,070 5.6 -11.0°
